sat.trackr.live / text

‹ back to catalog

STARLINK-31538

NORAD 59525 · 2024-073Q

PAYLOAD ACTIVE UNKNOWN

§ Identity

Operator
Country
US
Launch date
2024-04-17
Launch site
AFETR
Launch vehicle
Mass (kg)
RCS (m²)

Purposes: comms

External: N2YO · Heavens-Above · Gunter

§ Orbital elements

Epoch: 2026-05-24T23:14:13.305120Z

Period
94.27 min
Inclination
42.9999°
Eccentricity
0.0001267
Mean motion
15.27592558 rev/d
Perigee alt
482.1 km
Apogee alt
483.9 km
Semi-major
6,861.1 km
B*
2.1508e-5
RAAN
247.0482°
Arg perigee
276.8018°
Mean anomaly
83.2690°
Rev number
11,784

§ Raw data

STARLINK-315381 59525U 24073Q   26144.96820955  .00000330  00000+0  21508-4 0  99982 59525  42.9999 247.0482 0001267 276.8018  83.2690 15.27592558117843

JSON: /api/v1/satellites/59525 · /tle

For live sub-satellite position, see the globe view (requires WebGL).

§ Visibility from observer

Set your observer location to see the next 7 days of passes ≥ 10°. The values pass through the URL so the page stays shareable.

No JS? Fill the form by hand. The geolocation button needs JavaScript.